Current weather by "City, St" or "zip code"  
 

Current Conditions: Hermiston, Hermiston Municipal Airport, OR

Fair


37.0 F

Last Updated on Oct 24 2020, 6:53 pm PDT
Humidity: 52%
Wind Speed: N 8.1 mph
Barometer 30.36 in
Dewpoint: 21.0 F
Visibility: 10.00 mi
Precip: --
Heat Index: NA
Wind Chill: 31 F
Current conditions at:

Hermiston, Hermiston Municipal Airport, OR (KHRI)

Lat: 45.82583 Lon: 119.26111

Local Radar Image active severe weather and emergency alerts image image weather storm and storm spotter reports image weather observation monitoring service image
Local
Radar
Active
Alerts
Storm Reports Obs
Monitoring

Sign-up For Email & Text Message Weather Alert Notification Services



Advertise Here

Observation History for Hermiston, Hermiston Municipal Airport, OR


Time Wind
(mph)
Vis
(mi)
Weather Precip (in) Temperature (F) Relative
Humidity
Wind
Chill
(F)
Heat
Index
(F)
Pressure
Air Dwpt altimeter
(in)
sea level
(mb)
Rmks
6:53 pm PDT N 8.1 10.00 Fair -- 37.0 21.0 52% 31 NA 30.36 1028.4
5:53 pm PDT N 6.9 10.00 Fair -- 39.0 19.9 46% 34 NA 30.33 1027.4
4:53 pm PDT N 12.7 10.00 Fair -- 43.0 19.9 40% 36 NA 30.31 1026.7
3:53 pm PDT NE 13.8 10.00 Partly Cloudy -- 45.0 21.9 40% 39 NA 30.29 1026.2
2:53 pm PDT N 10.4 10.00 Fair -- 44.0 24.1 45% 38 NA 30.28 1025.5
1:53 pm PDT NE 8.1 10.00 Overcast -- 43.0 28.9 58% 38 NA 30.27 1025.5
12:53 pm PDT N 8.1 10.00 Overcast -- 43.0 32.0 65% 38 NA 30.27 1025.2
11:53 am PDT NE 10.4 10.00 Overcast -- 41.0 34.0 76% 35 NA 30.25 1024.7
10:53 am PDT N 6.9 10.00 Overcast -- 42.0 36.0 79% 38 NA 30.23 1024.0
9:53 am PDT W 4.6 8.00 Overcast Trace 40.0 37.0 89% 37 NA 30.21 1023.4
8:53 am PDT NW 3.5 5.00 Light Rain Fog/Mist 00.01 40.0 37.0 89% NA NA 30.18 1022.3
7:53 am PDT NW 3.5 10.00 Overcast Trace 39.0 36.0 89% NA NA 30.15 1021.4
6:53 am PDT W 3.5 10.00 Light Rain Trace 39.0 36.0 89% NA NA 30.13 1020.5
5:53 am PDT S 4.6 10.00 Overcast Trace 39.0 36.0 89% 36 NA 30.09 1019.2
4:53 am PDT S 4.6 10.00 Overcast 00.02 38.0 35.1 89% 34 NA 30.06 1018.2
3:53 am PDT NE 3.5 9.00 Light Rain 00.01 39.0 35.1 86% NA NA 30.05 1017.7
2:53 am PDT N 0.0 5.00 Rain Fog/Mist 00.08 39.0 36.0 89% NA NA 30.03 1017.0
1:53 am PDT NE 6.9 8.00 Overcast Trace 40.0 36.0 86% 35 NA 30.00 1016.2
12:53 am PDT NE 8.1 5.00 Light Rain Fog/Mist 00.03 40.0 37.0 89% 35 NA 29.96 1014.9
11:53 pm PDT NE 9.2 3.00 Light Rain 00.01 41.0 36.0 82% 35 NA 29.93 1013.6
10:53 pm PDT NE 17.3 10.00 Overcast -- 43.0 34.0 71% 35 NA 29.89 1012.4
9:53 pm PDT NE 11.5 10.00 Overcast -- 44.0 30.9 60% 38 NA 29.86 1011.4
8:53 pm PDT E 9.2 10.00 Overcast -- 45.0 32.0 61% 40 NA 29.83 1010.4
7:53 pm PDT N 9.2 10.00 Overcast -- 45.0 33.1 63% 40 NA 29.83 1010.4

Regional Weather Observation


Tri-Cities Airport, WA (KPSC)

Fair
34.0 F

Hanford, WA (KHMS)

Partly Cloudy
61.0 F

Eastern Oregon Regional Airport at Pendleton, OR (KPDT)

Fair
30.0 F

Walla Walla Regional Airport, WA (KALW)

Overcast
34.0 F

Meacham, OR (KMEH)

Fair
34.0 F

Yakima Air Terminal - McAllister Field, WA (KYKM)

Overcast
40.0 F